User: anonymous   Login
Location: Peebles
(55.6412°N, 3.1714°W)
Time: 02:04:52
(UTC+00:00)
Language:

Cosmos 1766 - Orbit

View from above orbital plane
View from above orbital plane
View from above satellite
View from above satellite

Ground track
Ground track

The orbit data is extracted from the following two-line orbital elements,

1 16881U 86055A   21333.44333324  .00000820  00000-0  46255-4 0  9992
2 16881  82.5082 231.0134 0014679 263.7106  96.2453 15.11716262905822
Epoch (UTC): 29 November 2021 10:38:23
Eccentricity: 0.0014679
inclination: 82.5082°
perigee height: 521 km
apogee height: 541 km
right ascension of ascending node: 231.0134°
argument of perigee: 263.7106°
revolutions per day: 15.11716262
mean anomaly at epoch: 96.2453°
orbit number at epoch: 90582

The dashed part of the orbit path shows where the satellite is in the earth's shadow,  

DLR